Location: ??????
(55.2000°N, 38.3000°E)
Time: 17:55:27
(UTC+00:00)

Lacrosse 5 rocket - Pass Details

Date: 15 November 2025
Orbit: 406 x 491 km, 57.0° (Epoch: 14 December)

Event Time Altitude Azimuth Distance (km) Brightness Sun altitude
Exits shadow 01:24:04 15° 85° (E) 1,254 3.9 -30.3°
Drops below altitude 10° 01:24:42 10° 87° (E) 1,509 4.4 -30.2°
Sets 01:26:47 0° 91° (E) 2,361 5.7 -29.9°
